Simultaneous Nadir Overpasses (SNOs) Predictions

Prediction of SNOs between GOES-15 and NOAA-20 Satellite Orbit:

Table of predicted SNOs for the next 14.0 days since TLE Epoch: 9/14/2024
Index Date Time (GOES-15) GOES-15 Lat,Lon NOAA-20 Lat,Lon Distance(km) Time Diff (sec)
1 09/14/2024 21:25:25 0.35, 61.39 0.65, 60.05 152.42 80
2 09/15/2024 21:03:57 0.35, 61.39 -0.33, 64.60 365.03 80
3 09/17/2024 09:25:51 -0.34, 61.34 -0.80, 59.30 233.21 80
4 09/18/2024 09:09:43 -0.35, 61.34 0.20, 63.84 285.14 80
5 09/19/2024 21:31:28 0.33, 61.36 0.96, 58.58 317.40 80
6 09/20/2024 21:10:00 0.34, 61.37 -0.05, 63.12 199.91 80
7 09/22/2024 09:31:52 -0.32, 61.34 -1.10, 57.83 400.46 80
8 09/23/2024 09:15:45 -0.33, 61.34 -0.08, 62.37 117.31 80
9 09/24/2024 21:37:28 0.31, 61.36 1.27, 57.11 484.87 80
10 09/25/2024 21:16:01 0.32, 61.37 0.25, 61.65 31.90 80
